Location: Del Amo
(33.8464°N, 118.2104°W)
Time: 03:53:44
(UTC+00:00)

S-56A Canister/Altair - Pass Details

Date: 13 September 2024
Orbit: 636 x 2487 km, 38.9° (Epoch: 05 October)

Event Time Altitude Azimuth Distance (km) Brightness Sun altitude
Rises 06:59:58 0° 289° (WNW) 4,234 11.7 -50.9°
Reaches altitude 10° 07:02:26 10° 290° (WNW) 3,475 11.1 -51.0°
Enters shadow 07:04:05 18° 291° (WNW) 3,003 10.7 -51.1°
Maximum altitude 07:11:44 85° 20° (NNE) 1,856 - -51.6°
Drops below altitude 10° 07:25:27 10° 110° (ESE) 4,935 - -52.2°
Sets 07:29:39 0° 111° (ESE) 6,067 - -52.3°
